FW3958 Weather Reports


Display with metric or nautical units.
time (UTC)temp
F
wind
direction
speed
MPH
gust
MPH
rain 1hr
in
rain 24hr
in
rain mn
in
humidity
%
barometer
mb
20260503204534 82 319 3.0 10.0 0.00 0.00 0.00 57 1011.7
20260503203040 81 313 7.0 11.0 0.00 0.00 0.00 56 1011.9
20260503201535 83 306 1.0 8.0 0.00 0.00 0.00 60 1012.1
20260503200027 85 49 1.0 11.0 0.00 0.00 0.00 43 1012.1
20260503194525 84 59 0.0 11.0 0.00 0.00 0.00 45 1012.3
20260503193022 83 116 5.0 12.0 0.00 0.00 0.00 45 1012.5
20260503191518 83 21 0.0 5.0 0.00 0.00 0.00 51 1012.7
20260503190017 82 59 1.0 11.0 0.00 0.00 0.00 47 1012.8
20260503184512 81 66 1.0 10.0 0.00 0.00 0.00 51 1013.0
20260503183009 80 95 4.0 13.0 0.00 0.00 0.00 52 1013.2
20260503181506 79 24 0.0 8.0 0.00 0.00 0.00 53 1013.2
20260503180002 78 53 2.0 11.0 0.00 0.00 0.00 53 1013.3
20260503174600 77 347 4.0 10.0 0.00 0.00 0.00 54 1013.3
20260503173101 77 72 0.0 9.0 0.00 0.00 0.00 57 1013.5
20260503171559 75 108 1.0 8.0 0.00 0.00 0.00 58 1013.6
20260503130104 47 259 0.0 0.0 0.00 0.00 0.00 100 1013.7
20260503081533 46 259 0.0 1.0 0.00 0.00 0.00 100 1014.8
20260503071524 48 186 0.0 0.0 0.00 0.00 0.00 100 1015.4
20260503054516 50 186 0.0 0.0 0.00 0.00 0.00 100 1015.8
20260503053017 50 186 0.0 0.0 0.00 0.00 0.00 100 1015.9
20260503051513 50 186 0.0 0.0 0.00 0.00 0.00 100 1016.1
20260503050012 51 186 0.0 0.0 0.00 0.00 0.00 100 1016.1
20260503044522 51 186 0.0 3.0 0.00 0.00 0.00 100 1016.0
20260503043012 52 180 1.0 3.0 0.00 0.00 0.00 99 1015.8
20260503041512 52 180 0.0 2.0 0.00 0.00 0.00 98 1015.6
20260503040010 53 178 1.0 4.0 0.00 0.00 0.00 98 1015.5
20260503034510 54 181 1.0 3.0 0.00 0.00 0.00 97 1015.1
20260503033010 54 182 3.0 7.0 0.00 0.00 0.00 96 1015.0
20260503031510 55 179 0.0 3.0 0.00 0.00 0.00 94 1014.8
20260503030108 56 184 3.0 6.0 0.00 0.00 0.00 93 1014.9
20260503024509 58 183 3.0 7.0 0.00 0.00 0.00 91 1014.9
20260503023024 59 169 3.0 7.0 0.00 0.00 0.00 90 1014.7
20260503021507 59 211 2.0 6.0 0.00 0.00 0.00 89 1014.7
20260503020006 60 205 2.0 5.0 0.00 0.00 0.00 88 1014.8
20260503014507 61 176 3.0 8.0 0.00 0.00 0.00 87 1014.9
20260503013114 61 218 3.0 8.0 0.00 0.00 0.00 88 1014.9
20260503011506 62 202 4.0 7.0 0.00 0.00 0.00 86 1015.0
20260503010002 62 218 4.0 8.0 0.00 0.00 0.00 86 1015.0
20260503004600 63 230 5.0 9.0 0.00 0.00 0.00 85 1015.2
20260503003106 64 209 5.0 9.0 0.00 0.00 0.00 83 1015.2
20260503001600 63 284 2.0 5.0 0.00 0.00 0.00 84 1015.2
20260503000109 63 299 3.0 6.0 0.00 0.00 0.00 84 1015.2
20260502234555 64 326 2.0 7.0 0.00 0.00 0.00 82 1015.3
20260502233059 65 257 3.0 7.0 0.00 0.00 0.00 82 1015.4
20260502231552 64 326 3.0 8.0 0.00 0.00 0.00 84 1015.5
20260502230051 66 319 4.0 8.0 0.00 0.00 0.00 80 1015.5
20260502224547 65 9 5.0 8.0 0.00 0.00 0.00 84 1015.6
20260502223044 64 9 2.0 7.0 0.00 0.00 0.00 85 1015.6
20260502221540 63 22 3.0 8.0 0.00 0.00 0.00 84 1016.1
20260502220039 62 29 8.0 12.0 0.00 0.00 0.00 86 1016.2
20260502214537 62 21 8.0 12.0 0.00 0.00 0.00 86 1016.4
20260502213036 62 6 6.0 12.0 0.00 0.00 0.00 86 1016.4
20260502211541 61 16 7.0 13.0 0.00 0.00 0.00 84 1016.5
20260502210033 62 335 6.0 12.0 0.00 0.00 0.00 87 1016.6